User: anonymous   Login
Location: Caltech
(34.1382°N, 118.1253°W)
Time: 23:33:53
(UTC-07:00)
Language:

Sapphire - Orbit

View from above orbital plane
View from above orbital plane
View from above satellite
View from above satellite

Ground track
Ground track

The orbit data is extracted from the following two-line orbital elements,

1 26932U 01043D   18169.56890173 -.00000057 +00000-0 +98167-5 0  9993
2 26932 067.0556 228.7078 0007819 288.0547 071.9702 14.30282301872698
Epoch (UTC): 18 June 2018 13:39:13
Eccentricity: 0.0007819
inclination: 67.0556°
perigee height: 785 km
apogee height: 796 km
right ascension of ascending node: 228.7078°
argument of perigee: 288.0547°
revolutions per day: 14.30282301
mean anomaly at epoch: 71.9702°
orbit number at epoch: 87269

The dashed part of the orbit path shows where the satellite is in the earth's shadow,  

DLR